User: anonymous   Login
Location: Newark
(51.4833°N, 7.2167°E)
Time: 15:13:03
(UTC+00:00)
Language:

LightSail 2 - Orbit

View from above orbital plane
View from above orbital plane
View from above satellite
View from above satellite

Ground track
Ground track

The orbit data is extracted from the following two-line orbital elements,

1 44420U 19036AC  20017.33189702  .00006724  00000-0  15095-2 0  9997
2 44420  24.0092 347.9171 0012894 241.3066 118.6157 14.54152715 28139
Epoch (UTC): 17 January 2020 07:57:55
Eccentricity: 0.0012894
inclination: 24.0092°
perigee height: 703 km
apogee height: 721 km
right ascension of ascending node: 347.9171°
argument of perigee: 241.3066°
revolutions per day: 14.54152715
mean anomaly at epoch: 118.6157°
orbit number at epoch: 2813

The dashed part of the orbit path shows where the satellite is in the earth's shadow,  

DLR